Погода в Плайя Санта Мария

Куба     21°28′10″N   78°26′34″W
темп.,
°C
ветер,
м/с
пор.,
м/с
влажн.,
%
обл.,
%
осадки,
мм/ч
давл.,
гПа
погр.,
м
16 мая, вс
вс1623:00+25св49807 1.0 1016496
02:00+23всв39898 1.9 1015290
05:00+23св388999 0.2 1015273
08:00+25св47806 0.2 1016412
11:00+31всв455135 0.0 10171677
14:00+30св6651100 0.2 10151341
17:00+31ссв774797 0.0 10141464
20:00+27св696689 0.1 1015692
17 мая, пн
пн1723:00+25св410825 0.1 1016516
02:00+24св388950 1.2 1015325
05:00+23св37918 0.1 1014239
08:00+25всв4782100 0.1 1016407
11:00+31в455255 0.1 10161713
14:00+30св665599 0.3 1014807
17:00+29ююз3558100 0.2 1013405
20:00+23ссв2393100 10.7 101598
18 мая, вт
вт1823:00+24всв4991100 12.8 1016425
02:00+24всв388993 13.3 1015317
05:00+23всв2691100 0.0 1014215
08:00+24в3688100 3.5 1016228
11:00+27в4669100 3.1 1016744
14:00+27вюв3473100 3.4 1015579
17:00+27вюв4572100 4.8 1014522
20:00+24вюв3585100 6.4 1015133
19 мая, ср
ср1923:00+23всв3688100 0.0 1016181
02:00+22в379068 0.0 1015212
05:00+22в359192 0.0 1014122
08:00+24в358473 0.0 1016229
11:00+29в455976 0.0 10161231
14:00+31св5452100 0.4 10141559
17:00+28в3468100 6.5 1013416
20:00+25всв4982100 9.4 1015336
20 мая, чт
чт2023:00+24всв4108697 0.0 1016419
02:00+23всв3890100 0.0 1014329
05:00+23всв399095 0.0 1014292
08:00+25всв4982100 0.0 1015652
11:00+29в686181 0.0 10161446
14:00+29всв675798 0.1 10151302
17:00+30св8957100 0.0 10141313
20:00+25всв5980100 3.4 1015367